[[{"header":{"parameterUnit":"m.s-1","parameterCategory":1,"la1":30.2991,"la2":30.254,"lo1":-89.0895,"lo2":-89.0444,"dy":0.0017,"dx":0.0017,"nx":28,"ny":28,"refTime":"2024-06-28T21:00:00:Z","depth":0,"parameterNumber":2,"parameterNumberName":"U-component_of_WINDS"},"data":[0,0,0,0,0,0,0,0,0,0,0,0,0,0,0,0,0,0,0,0,0,0,0,0,0,0,0,0,0,0,0,0,0,0,0,0,0,0,0,0,0,0,0,0,0,0,0,0,0,0,0,0,0,0,0,0,0,0,3.6694,3.6695,0,3.6803,3.6804,3.6806,3.6818,3.6817,3.6816,3.6815,3.6927,3.6931,3.6935,0,0,0,0,0,0,0,0,0,0,0,0,0,3.6499,3.6503,3.6694,3.6695,3.6697,3.6803,3.6804,3.6806,3.6818,3.6817,3.6816,3.6814,3.6926,3.693,3.6935,0,0,0,0,0,0,0,0,0,0,0,0,0,3.6593,3.6504,3.6694,3.6716,3.6719,3.6803,3.6804,3.6806,3.6819,3.6817,3.6815,3.6814,3.6924,3.693,3.6936,3.7005,0,0,3.6954,3.6957,0,0,0,0,0,0,0,0,3.6588,3.6601,3.6711,3.6714,3.6718,3.6795,3.6777,3.6873,3.6819,3.6781,3.6815,3.6813,3.6884,3.6894,3.6918,3.701,3.7015,3.6954,3.6958,3.6961,3.6962,0,0,0,0,0,0,0,3.6582,3.6596,3.6737,3.6713,3.6717,3.6721,3.6733,3.6795,3.684,3.6784,3.6785,3.6798,3.6886,3.6912,3.692,3.7017,3.6954,3.696,3.6963,3.6966,3.7176,3.7177,0,0,0,0,0,0,3.6571,3.659,3.6734,3.674,3.6648,3.6726,3.6739,3.6772,3.684,3.6848,3.6799,3.6798,3.6902,3.6913,3.6924,3.7012,3.6961,3.6966,3.697,3.7174,3.7176,3.7178,0,0,0,0,0,0,3.6567,3.6583,3.6729,3.6666,3.6685,3.6731,3.6768,3.6775,3.6801,3.6851,3.6859,3.6817,3.6901,3.6916,3.6986,3.7016,3.6969,3.6974,3.7171,3.7174,3.7177,3.7186,0,0,0,0,0,0,3.6561,3.6582,3.6608,3.6666,3.6688,3.6788,3.677,3.6778,3.6811,3.6811,3.687,3.6878,3.6901,3.6977,3.6992,3.7023,3.6979,3.7169,3.7173,3.7176,3.7184,3.7189,3.7194,0,0,0,0,0,3.6554,3.6605,3.6609,3.6626,3.6721,3.679,3.6802,3.6827,3.6813,3.6841,3.6874,3.6876,3.701,3.6984,3.7001,3.7034,3.7167,3.7172,3.7176,3.7181,3.7188,3.7194,0,0,0,0,0,0,3.6548,3.6613,3.6618,3.669,3.6734,3.6792,3.6826,3.6834,3.6883,3.688,3.691,3.6923,3.6992,3.702,3.699,3.7107,3.7087,3.7095,3.7086,3.7093,3.7098,3.709,3.6984,0,0,0,0,0,3.6556,3.6605,3.6659,3.6718,3.674,3.678,3.681,3.6826,3.6873,3.6892,3.6929,3.6975,3.7028,3.7062,3.7113,3.7188,3.7202,3.722,3.7225,3.723,3.7236,3.728,3.729,3.7193,3.7193,3.7193,0,0,3.6571,3.6613,3.6642,3.6718,3.6754,3.6806,3.6795,3.6849,3.6888,3.69,3.6969,3.6998,3.7052,3.7125,3.7159,3.7151,3.7266,3.7235,3.7238,3.7243,3.7286,3.7295,3.7303,3.7196,3.7195,3.7195,0,0,3.6625,3.6661,3.6715,3.6752,3.6807,3.6834,3.6847,3.6904,3.6924,3.6994,3.7005,3.7052,3.7141,3.718,3.7211,3.7284,3.7289,3.73,3.7327,3.737,3.7378,3.7385,3.7412,3.7421,3.7306,3.7306,3.7306,0,3.6637,3.6714,3.6741,3.6796,3.683,3.6845,3.69,3.6935,3.7004,3.7028,3.7018,3.7132,3.7169,3.7253,3.7271,3.7295,3.7312,3.7293,3.7375,3.7382,3.7389,3.7415,3.7425,3.7307,3.7307,3.7307,3.7307,0,3.6727,3.6781,3.6818,3.6886,3.6924,3.6979,3.7015,3.7051,3.7065,3.7093,3.7165,3.721,3.7272,3.7293,3.7306,3.738,3.7373,3.7368,3.7349,3.7398,3.7424,3.7434,3.7309,3.7308,3.7308,3.7308,0,0,3.6779,3.6863,3.6876,3.6908,3.6972,3.7014,3.7071,3.7132,3.7163,3.7211,3.726,3.7338,3.7335,3.737,3.7388,3.7426,3.7483,3.7417,3.7419,3.7429,3.7569,3.7572,3.7583,3.7487,3.7489,3.7491,3.7565,0,3.6841,3.6942,3.6969,3.7055,3.7107,3.7123,3.7173,3.7218,3.7247,3.7295,3.7327,3.7382,3.7373,3.7395,3.7433,3.7468,3.7512,3.7463,3.7534,3.7537,3.752,3.7596,3.7599,3.7667,3.7575,3.7577,3.7578,0,3.6926,3.6978,3.7069,3.7129,3.7152,3.7196,3.7255,3.7301,3.7354,3.7372,3.7414,3.7429,3.749,3.7469,3.7555,3.7521,3.7553,3.7575,3.7578,3.7585,3.756,3.7606,3.7688,3.7699,3.7593,3.7592,3.7591,0,3.6956,3.7048,3.7115,3.7142,3.7213,3.7244,3.7275,3.7327,3.7362,3.7415,3.7439,3.7498,3.753,3.7576,3.7607,3.7588,3.7691,3.7672,3.7709,3.7709,3.773,3.7728,3.7818,3.7749,3.7749,3.7749,3.7749,0,3.7023,3.7079,3.713,3.7171,3.7235,3.7267,3.7329,3.7361,3.7407,3.7456,3.7474,3.7519,3.7558,3.7609,3.7635,3.7703,3.7718,3.7735,3.7741,3.7734,3.7731,3.7754,3.775,3.7752,3.7751,3.7751,3.775,0,3.7067,3.7103,3.7178,3.724,3.7257,3.7301,3.7355,3.7397,3.7427,3.7489,3.7505,3.7553,3.7615,3.7651,3.7728,3.7746,3.7822,3.7826,3.7804,3.7807,3.7843,3.7839,3.7951,3.7968,3.7887,3.7888,3.7889,0,3.7107,3.715,3.7218,3.7252,3.7284,3.7338,3.7376,3.741,3.7448,3.7513,3.7547,3.761,3.7662,3.7761,3.7803,3.7863,3.7869,3.7904,3.7878,3.787,3.787,3.7867,3.7873,3.7908,3.7909,3.7909,3.791,0,3.7174,3.7191,3.7244,3.7304,3.7349,3.7397,3.7446,3.7473,3.7516,3.7558,3.7622,3.7663,3.7743,3.7806,3.787,3.7904,3.7915,3.7918,3.793,3.7923,3.7909,3.7918,3.7817,3.7915,3.7914,3.7914,3.7914,3.7914,3.7218,3.7259,3.7313,3.7372,3.7413,3.7459,3.7502,3.7538,3.7592,3.766,3.7677,3.7745,3.7799,3.7887,3.7922,3.7976,3.797,3.7987,3.7992,3.7996,3.7997,3.79,3.7988,3.7988,3.7988,3.7988,3.7988,0,3.7288,3.7324,3.7379,3.7447,3.7494,3.7501,3.7556,3.7595,3.7654,3.7704,3.7756,3.783,3.7892,3.794,3.8004,3.8038,3.8045,3.8054,3.8052,3.806,3.7998,3.7982,3.8048,3.8048,3.8048,3.8048,3.8048,3.8048,3.7329,3.7399,3.7422,3.7513,3.7549,3.7615,3.7647,3.769,3.773,3.7813,3.7864,3.7895,3.7946,3.8014,3.8071,3.8084,3.8107,3.8115,3.8129,3.807,3.8064,3.8058,3.8042,3.812,3.812,3.8186,3.8187,3.8187]},{"header":{"parameterUnit":"m.s-1","parameterCategory":1,"la1":30.2991,"la2":30.254,"lo1":-89.0895,"lo2":-89.0444,"dy":0.0017,"dx":0.0017,"nx":28,"ny":28,"refTime":"2024-06-28T21:00:00:Z","depth":0,"parameterNumber":3,"parameterNumberName":"V-component_of_WINDS"},"data":[0,0,0,0,0,0,0,0,0,0,0,0,0,0,0,0,0,0,0,0,0,0,0,0,0,0,0,0,0,0,0,0,0,0,0,0,0,0,0,0,0,0,0,0,0,0,0,0,0,0,0,0,0,0,0,0,0,0,-1.4548,-1.4548,0,-1.4554,-1.4554,-1.4554,-1.4562,-1.4563,-1.4563,-1.4563,-1.4568,-1.4568,-1.4568,0,0,0,0,0,0,0,0,0,0,0,0,0,-1.4543,-1.4543,-1.4548,-1.4548,-1.4548,-1.4554,-1.4554,-1.4554,-1.4562,-1.4563,-1.4563,-1.4563,-1.4568,-1.4568,-1.4568,0,0,0,0,0,0,0,0,0,0,0,0,0,-1.4546,-1.4543,-1.4548,-1.4553,-1.4553,-1.4554,-1.4554,-1.4554,-1.4562,-1.4563,-1.4563,-1.4563,-1.4568,-1.4568,-1.4568,-1.4564,0,0,-1.4568,-1.4568,0,0,0,0,0,0,0,0,-1.4546,-1.4547,-1.4552,-1.4552,-1.4553,-1.4558,-1.4554,-1.4558,-1.4562,-1.4559,-1.4563,-1.4563,-1.4564,-1.4565,-1.4565,-1.4564,-1.4565,-1.4568,-1.4568,-1.4568,-1.4568,0,0,0,0,0,0,0,-1.4546,-1.4546,-1.455,-1.4552,-1.4553,-1.4555,-1.4555,-1.4555,-1.456,-1.4559,-1.456,-1.4561,-1.4565,-1.4565,-1.4566,-1.4565,-1.4568,-1.4568,-1.4568,-1.4568,-1.4562,-1.4562,0,0,0,0,0,0,-1.4545,-1.4546,-1.455,-1.455,-1.455,-1.4555,-1.4555,-1.4556,-1.456,-1.4561,-1.456,-1.4561,-1.4565,-1.4566,-1.4566,-1.4562,-1.4568,-1.4568,-1.4568,-1.4563,-1.4562,-1.4562,0,0,0,0,0,0,-1.4545,-1.4545,-1.455,-1.4549,-1.4549,-1.4554,-1.4555,-1.4556,-1.4557,-1.4561,-1.4562,-1.456,-1.4565,-1.4566,-1.4565,-1.4563,-1.4568,-1.4568,-1.4563,-1.4563,-1.4562,-1.4555,0,0,0,0,0,0,-1.4545,-1.4545,-1.4544,-1.4548,-1.4549,-1.4549,-1.4555,-1.4556,-1.4557,-1.4558,-1.4561,-1.4562,-1.4566,-1.4565,-1.4565,-1.4563,-1.4568,-1.4563,-1.4563,-1.4562,-1.4556,-1.4555,-1.4554,0,0,0,0,0,-1.4544,-1.4541,-1.4544,-1.4544,-1.4548,-1.4549,-1.4549,-1.4554,-1.4557,-1.4555,-1.4559,-1.4562,-1.4563,-1.4565,-1.4565,-1.4563,-1.4563,-1.4563,-1.4562,-1.4556,-1.4555,-1.4554,0,0,0,0,0,0,-1.4535,-1.4541,-1.4545,-1.4542,-1.4545,-1.455,-1.4548,-1.4552,-1.4554,-1.4554,-1.4559,-1.456,-1.4559,-1.4561,-1.4562,-1.456,-1.4564,-1.4563,-1.4559,-1.4558,-1.4557,-1.4556,-1.4568,0,0,0,0,0,-1.4532,-1.4533,-1.4539,-1.4536,-1.4538,-1.4543,-1.4543,-1.4547,-1.455,-1.4551,-1.4554,-1.4556,-1.4557,-1.4557,-1.4559,-1.4556,-1.4557,-1.4555,-1.4554,-1.4553,-1.4553,-1.4553,-1.4552,-1.4561,-1.4561,-1.4561,0,0,-1.4527,-1.4531,-1.4531,-1.4534,-1.4537,-1.4538,-1.4544,-1.4543,-1.4544,-1.455,-1.455,-1.4553,-1.4556,-1.4554,-1.4554,-1.4556,-1.4551,-1.4553,-1.4552,-1.4552,-1.4552,-1.4551,-1.4551,-1.4561,-1.4561,-1.4561,0,0,-1.4519,-1.4521,-1.452,-1.4523,-1.4527,-1.4531,-1.4531,-1.4535,-1.4538,-1.4538,-1.4543,-1.4544,-1.4545,-1.4547,-1.4549,-1.4543,-1.4546,-1.4543,-1.4538,-1.4538,-1.4538,-1.4537,-1.4536,-1.4535,-1.4543,-1.4543,-1.4543,0,-1.4512,-1.4513,-1.4519,-1.4519,-1.4521,-1.4528,-1.4527,-1.4529,-1.4533,-1.4534,-1.4536,-1.4539,-1.4542,-1.4542,-1.454,-1.4541,-1.4541,-1.4542,-1.4537,-1.4537,-1.4536,-1.4535,-1.4534,-1.4542,-1.4542,-1.4542,-1.4542,0,-1.4505,-1.4506,-1.4504,-1.4509,-1.4511,-1.451,-1.4516,-1.4517,-1.4521,-1.4524,-1.4525,-1.4528,-1.4531,-1.4531,-1.4534,-1.4532,-1.4533,-1.4536,-1.454,-1.4535,-1.4534,-1.4533,-1.4542,-1.4542,-1.4542,-1.4542,0,0,-1.4489,-1.4498,-1.4498,-1.45,-1.4506,-1.4507,-1.4507,-1.4511,-1.4512,-1.4514,-1.4515,-1.4517,-1.4521,-1.4522,-1.4526,-1.4526,-1.4522,-1.4529,-1.4529,-1.4528,-1.4521,-1.4518,-1.4518,-1.4525,-1.4525,-1.4524,-1.452,0,-1.4482,-1.4483,-1.4489,-1.4488,-1.449,-1.4497,-1.4498,-1.4501,-1.4505,-1.4507,-1.4511,-1.4513,-1.4517,-1.4518,-1.4518,-1.4522,-1.4521,-1.4523,-1.4525,-1.4526,-1.4525,-1.4517,-1.4514,-1.451,-1.452,-1.452,-1.452,0,-1.4473,-1.4476,-1.4476,-1.4483,-1.4484,-1.4484,-1.4489,-1.449,-1.4495,-1.4498,-1.4501,-1.4505,-1.4506,-1.451,-1.4512,-1.4514,-1.4515,-1.4518,-1.4518,-1.4518,-1.4522,-1.4517,-1.4509,-1.4508,-1.4519,-1.4519,-1.4519,0,-1.4462,-1.4467,-1.4468,-1.447,-1.4478,-1.4478,-1.4481,-1.4486,-1.4488,-1.4492,-1.4494,-1.4497,-1.4499,-1.4502,-1.4507,-1.451,-1.4509,-1.4513,-1.4512,-1.4512,-1.4511,-1.4511,-1.4503,-1.4512,-1.4512,-1.4512,-1.4512,0,-1.4453,-1.4453,-1.4463,-1.4464,-1.4464,-1.4471,-1.4471,-1.4475,-1.448,-1.4482,-1.4488,-1.449,-1.4497,-1.4499,-1.4504,-1.4505,-1.4506,-1.4509,-1.451,-1.4508,-1.4508,-1.4509,-1.451,-1.4512,-1.4512,-1.4512,-1.4512,0,-1.4441,-1.4448,-1.4449,-1.4458,-1.446,-1.446,-1.4467,-1.4468,-1.4472,-1.4475,-1.4475,-1.4483,-1.4486,-1.4492,-1.4497,-1.45,-1.4501,-1.4503,-1.4499,-1.45,-1.4499,-1.4499,-1.4491,-1.4491,-1.45,-1.45,-1.4499,0,-1.4435,-1.4435,-1.4444,-1.4446,-1.4449,-1.4452,-1.4454,-1.4462,-1.4464,-1.4471,-1.4471,-1.4475,-1.4479,-1.4484,-1.4489,-1.4494,-1.4496,-1.4493,-1.4496,-1.4495,-1.4496,-1.4496,-1.4497,-1.4492,-1.4492,-1.4492,-1.4492,0,-1.4424,-1.4428,-1.4431,-1.4436,-1.4439,-1.4443,-1.4448,-1.4449,-1.4458,-1.446,-1.4464,-1.4467,-1.4472,-1.4477,-1.4482,-1.4485,-1.449,-1.4491,-1.4491,-1.4489,-1.4487,-1.4489,-1.4498,-1.4491,-1.4491,-1.4491,-1.4491,-1.4491,-1.4415,-1.4416,-1.4422,-1.4427,-1.4431,-1.4435,-1.4437,-1.4443,-1.4446,-1.4452,-1.4456,-1.446,-1.4466,-1.4474,-1.4477,-1.448,-1.4482,-1.4482,-1.4482,-1.4482,-1.4482,-1.4487,-1.4481,-1.4481,-1.4481,-1.4481,-1.4481,0,-1.4404,-1.4409,-1.4413,-1.442,-1.4423,-1.4428,-1.4434,-1.4436,-1.444,-1.4445,-1.4449,-1.4454,-1.4459,-1.4465,-1.447,-1.4472,-1.4474,-1.4473,-1.4473,-1.4474,-1.4479,-1.4479,-1.4471,-1.4471,-1.4471,-1.4471,-1.4471,-1.4471,-1.4399,-1.4402,-1.4407,-1.4411,-1.4416,-1.4421,-1.4424,-1.4428,-1.4432,-1.4438,-1.4442,-1.4447,-1.4453,-1.4459,-1.4463,-1.4465,-1.4467,-1.4465,-1.4467,-1.4472,-1.4473,-1.4474,-1.4474,-1.4465,-1.4465,-1.4462,-1.4462,-1.4462]}]]